Location: Newark
(48.6461°N, 4.3644°W)
Time: 11:14:58
(UTC+00:00)

A-11 Canister half - Pass Details

Date: 28 January 2020
Orbit: 1517 x 1683 km, 47.2° (Epoch: 25 February)

Event Time Altitude Azimuth Distance (km) Brightness Sun altitude
Exits shadow 03:58:07 55° 146° (SE) 1,781 9.2 -38.5°
Drops below altitude 10° 04:05:13 10° 121° (ESE) 3,695 11.4 -37.4°
Sets 04:08:18 0° 119° (ESE) 4,689 12.1 -36.9°
